| time (UTC) | temp C | wind direction | speed KPH | gust KPH | rain 1hr cm | rain 24hr cm | rain mn cm | humidity % | barometer mb |
| 20260505081729 | 16 | 358 | 1.6 | 8.0 | 0.00 | 0.00 | 0.00 | 58 | 1015.6 |
| 20260505080829 | 16 | 312 | 1.6 | 6.4 | 0.00 | 0.00 | 0.00 | 59 | 1015.5 |
| 20260505075929 | 16 | 343 | 3.2 | 9.7 | 0.00 | 0.00 | 0.00 | 59 | 1015.7 |
| 20260505075029 | 15 | 347 | 3.2 | 12.9 | 0.00 | 0.00 | 0.00 | 60 | 1015.7 |
| 20260505074129 | 15 | 331 | 3.2 | 8.0 | 0.00 | 0.00 | 0.00 | 60 | 1015.6 |
| 20260505073229 | 15 | 360 | 3.2 | 8.0 | 0.00 | 0.00 | 0.00 | 61 | 1015.6 |
| 20260505072329 | 15 | 19 | 3.2 | 8.0 | 0.00 | 0.00 | 0.00 | 61 | 1015.6 |
| 20260505071430 | 15 | 355 | 4.8 | 9.7 | 0.00 | 0.00 | 0.00 | 61 | 1015.6 |
| 20260505070529 | 15 | 17 | 4.8 | 12.9 | 0.00 | 0.00 | 0.00 | 62 | 1015.5 |
| 20260505065629 | 15 | 344 | 3.2 | 9.7 | 0.00 | 0.00 | 0.00 | 62 | 1015.5 |
| 20260505064750 | 15 | 356 | 3.2 | 8.0 | 0.00 | 0.00 | 0.00 | 62 | 1015.5 |
| 20260505063829 | 15 | 351 | 3.2 | 8.0 | 0.00 | 0.00 | 0.00 | 62 | 1015.5 |
| 20260505062929 | 15 | 346 | 3.2 | 8.0 | 0.00 | 0.00 | 0.00 | 62 | 1015.4 |
| 20260505062029 | 15 | 347 | 1.6 | 6.4 | 0.00 | 0.00 | 0.00 | 62 | 1015.3 |
| 20260505061129 | 15 | 340 | 1.6 | 4.8 | 0.00 | 0.00 | 0.00 | 63 | 1015.3 |
| 20260505060251 | 15 | 342 | 1.6 | 8.0 | 0.00 | 0.00 | 0.00 | 64 | 1015.2 |
| 20260505055350 | 15 | 4 | 0.0 | 6.4 | 0.00 | 0.00 | 0.00 | 63 | 1015.1 |
| 20260505054450 | 15 | 17 | 1.6 | 4.8 | 0.00 | 0.00 | 0.00 | 64 | 1014.9 |
| 20260505053529 | 15 | 15 | 1.6 | 8.0 | 0.00 | 0.00 | 0.00 | 64 | 1014.8 |
| 20260505052629 | 15 | 356 | 3.2 | 8.0 | 0.00 | 0.00 | 0.00 | 64 | 1014.8 |
| 20260505051729 | 15 | 19 | 3.2 | 11.3 | 0.00 | 0.00 | 0.00 | 63 | 1014.8 |
| 20260505050829 | 15 | 12 | 3.2 | 12.9 | 0.00 | 0.00 | 0.00 | 63 | 1014.6 |
| 20260505041450 | 15 | 24 | 3.2 | 9.7 | 0.00 | 0.00 | 0.00 | 63 | 1014.6 |
| 20260505040529 | 15 | 33 | 3.2 | 11.3 | 0.00 | 0.00 | 0.00 | 63 | 1014.6 |
| 20260505035629 | 15 | 10 | 3.2 | 11.3 | 0.00 | 0.00 | 0.00 | 62 | 1014.6 |
| 20260505034749 | 15 | 349 | 4.8 | 14.5 | 0.00 | 0.00 | 0.00 | 62 | 1014.6 |
| 20260505033828 | 15 | 357 | 4.8 | 16.1 | 0.00 | 0.00 | 0.00 | 62 | 1014.6 |
| 20260505032928 | 16 | 5 | 3.2 | 12.9 | 0.00 | 0.00 | 0.00 | 63 | 1014.6 |
| 20260505032029 | 16 | 7 | 4.8 | 12.9 | 0.00 | 0.00 | 0.00 | 63 | 1014.6 |
| 20260505031129 | 16 | 7 | 4.8 | 12.9 | 0.00 | 0.00 | 0.00 | 62 | 1014.6 |
| 20260505030228 | 16 | 12 | 6.4 | 16.1 | 0.00 | 0.00 | 0.00 | 62 | 1014.6 |
| 20260505025328 | 16 | 6 | 4.8 | 14.5 | 0.00 | 0.00 | 0.00 | 62 | 1014.6 |
| 20260505024449 | 16 | 19 | 4.8 | 14.5 | 0.00 | 0.00 | 0.00 | 61 | 1014.6 |
| 20260505023549 | 16 | 12 | 4.8 | 12.9 | 0.00 | 0.00 | 0.00 | 61 | 1014.7 |
| 20260505022628 | 16 | 9 | 4.8 | 14.5 | 0.00 | 0.00 | 0.00 | 60 | 1014.7 |
| 20260505021728 | 16 | 3 | 3.2 | 14.5 | 0.00 | 0.00 | 0.00 | 60 | 1014.7 |
| 20260505020828 | 16 | 26 | 4.8 | 12.9 | 0.00 | 0.00 | 0.00 | 60 | 1014.7 |
| 20260505015928 | 16 | 33 | 4.8 | 12.9 | 0.00 | 0.00 | 0.00 | 60 | 1014.7 |
| 20260505015028 | 16 | 41 | 3.2 | 9.7 | 0.00 | 0.00 | 0.00 | 59 | 1014.6 |
| 20260505014128 | 17 | 14 | 3.2 | 9.7 | 0.00 | 0.00 | 0.00 | 59 | 1014.7 |
| 20260505013229 | 17 | 1 | 3.2 | 14.5 | 0.00 | 0.00 | 0.00 | 58 | 1014.8 |
| 20260505012349 | 17 | 351 | 3.2 | 8.0 | 0.00 | 0.00 | 0.00 | 58 | 1014.9 |
| 20260505011428 | 17 | 341 | 4.8 | 12.9 | 0.00 | 0.00 | 0.00 | 58 | 1014.9 |
| 20260505010528 | 17 | 339 | 3.2 | 12.9 | 0.00 | 0.00 | 0.00 | 58 | 1015.0 |
| 20260505005649 | 17 | 336 | 4.8 | 14.5 | 0.00 | 0.00 | 0.00 | 58 | 1015.1 |
| 20260505004728 | 17 | 344 | 3.2 | 14.5 | 0.00 | 0.00 | 0.00 | 57 | 1015.2 |
| 20260505003828 | 17 | 341 | 3.2 | 9.7 | 0.00 | 0.00 | 0.00 | 57 | 1015.1 |
| 20260505002929 | 17 | 334 | 4.8 | 12.9 | 0.00 | 0.00 | 0.00 | 57 | 1015.2 |
| 20260505002049 | 17 | 330 | 4.8 | 12.9 | 0.00 | 0.00 | 0.00 | 57 | 1015.3 |
| 20260505001128 | 17 | 330 | 4.8 | 12.9 | 0.00 | 0.00 | 0.00 | 57 | 1015.3 |
| 20260505000228 | 17 | 325 | 4.8 | 12.9 | 0.00 | 0.00 | 0.00 | 57 | 1015.4 |
| 20260504235328 | 17 | 331 | 4.8 | 14.5 | 0.00 | 0.00 | 0.00 | 57 | 1015.3 |
| 20260504234428 | 17 | 341 | 3.2 | 9.7 | 0.00 | 0.00 | 0.00 | 57 | 1015.2 |
| 20260504233528 | 17 | 355 | 3.2 | 11.3 | 0.00 | 0.00 | 0.00 | 58 | 1015.4 |
| 20260504232628 | 17 | 340 | 0.0 | 11.3 | 0.00 | 0.00 | 0.00 | 61 | 1015.3 |
| 20260504231728 | 17 | 229 | 0.0 | 1.6 | 0.00 | 0.00 | 0.00 | 70 | 1015.3 |
| 20260504230828 | 17 | 229 | 0.0 | 1.6 | 0.00 | 0.00 | 0.00 | 70 | 1015.3 |
| 20260504225928 | 17 | 229 | 0.0 | 1.6 | 0.00 | 0.00 | 0.00 | 71 | 1015.2 |
| 20260504225028 | 17 | 228 | 1.6 | 4.8 | 0.00 | 0.00 | 0.00 | 70 | 1015.2 |
| 20260504224128 | 17 | 223 | 1.6 | 6.4 | 0.00 | 0.00 | 0.00 | 69 | 1015.1 |
| 20260504223228 | 17 | 208 | 1.6 | 6.4 | 0.00 | 0.00 | 0.00 | 68 | 1015.1 |
| 20260504222328 | 17 | 217 | 0.0 | 6.4 | 0.00 | 0.00 | 0.00 | 68 | 1015.1 |
| 20260504221428 | 17 | 228 | 1.6 | 6.4 | 0.00 | 0.00 | 0.00 | 67 | 1015.1 |
| 20260504220527 | 17 | 229 | 1.6 | 6.4 | 0.00 | 0.00 | 0.00 | 67 | 1015.1 |
| 20260504215649 | 17 | 233 | 1.6 | 6.4 | 0.00 | 0.00 | 0.00 | 67 | 1015.1 |
| 20260504214749 | 17 | 227 | 1.6 | 6.4 | 0.00 | 0.00 | 0.00 | 67 | 1015.0 |
| 20260504213828 | 17 | 222 | 1.6 | 6.4 | 0.00 | 0.00 | 0.00 | 66 | 1015.0 |
| 20260504212949 | 17 | 232 | 3.2 | 4.8 | 0.00 | 0.00 | 0.00 | 66 | 1015.0 |
| 20260504212028 | 18 | 257 | 4.8 | 11.3 | 0.00 | 0.00 | 0.00 | 65 | 1015.0 |
| 20260504211127 | 18 | 246 | 6.4 | 16.1 | 0.00 | 0.00 | 0.00 | 65 | 1015.1 |
| 20260504210248 | 18 | 239 | 4.8 | 12.9 | 0.00 | 0.00 | 0.00 | 64 | 1015.0 |
| 20260504205327 | 18 | 228 | 4.8 | 12.9 | 0.00 | 0.00 | 0.00 | 64 | 1014.9 |
| 20260504204427 | 18 | 229 | 4.8 | 11.3 | 0.00 | 0.00 | 0.00 | 63 | 1014.8 |
| 20260504203527 | 18 | 212 | 4.8 | 11.3 | 0.00 | 0.00 | 0.00 | 62 | 1014.6 |
| 20260504202627 | 18 | 228 | 4.8 | 11.3 | 0.00 | 0.00 | 0.00 | 62 | 1014.5 |
| 20260504201727 | 18 | 227 | 6.4 | 14.5 | 0.00 | 0.00 | 0.00 | 61 | 1014.4 |
| 20260504200827 | 18 | 233 | 6.4 | 17.7 | 0.00 | 0.00 | 0.00 | 60 | 1014.3 |
| 20260504195927 | 19 | 242 | 8.0 | 17.7 | 0.00 | 0.00 | 0.00 | 60 | 1014.1 |
| 20260504195048 | 19 | 240 | 9.7 | 20.9 | 0.00 | 0.00 | 0.00 | 59 | 1014.0 |
| 20260504194127 | 19 | 247 | 11.3 | 22.5 | 0.00 | 0.00 | 0.00 | 58 | 1013.8 |
| 20260504193227 | 20 | 246 | 11.3 | 29.0 | 0.00 | 0.00 | 0.00 | 58 | 1013.8 |
| 20260504192348 | 20 | 258 | 9.7 | 29.0 | 0.00 | 0.00 | 0.00 | 58 | 1013.8 |
| 20260504191428 | 20 | 257 | 11.3 | 22.5 | 0.00 | 0.00 | 0.00 | 57 | 1013.7 |
| 20260504190527 | 20 | 247 | 9.7 | 27.4 | 0.00 | 0.00 | 0.00 | 57 | 1013.6 |
| 20260504185627 | 20 | 249 | 11.3 | 22.5 | 0.00 | 0.00 | 0.00 | 56 | 1013.6 |
| 20260504184728 | 21 | 253 | 12.9 | 24.1 | 0.00 | 0.00 | 0.00 | 56 | 1013.5 |
| 20260504183827 | 21 | 253 | 14.5 | 22.5 | 0.00 | 0.00 | 0.00 | 56 | 1013.4 |
| 20260504182927 | 21 | 248 | 14.5 | 27.4 | 0.00 | 0.00 | 0.00 | 56 | 1013.2 |
| 20260504182027 | 21 | 255 | 14.5 | 27.4 | 0.00 | 0.00 | 0.00 | 55 | 1013.2 |
| 20260504181127 | 21 | 251 | 14.5 | 29.0 | 0.00 | 0.00 | 0.00 | 55 | 1013.2 |
| 20260504180227 | 21 | 256 | 12.9 | 29.0 | 0.00 | 0.00 | 0.00 | 55 | 1013.1 |
| 20260504175327 | 22 | 262 | 14.5 | 29.0 | 0.00 | 0.00 | 0.00 | 54 | 1013.2 |
| 20260504174448 | 22 | 257 | 14.5 | 27.4 | 0.00 | 0.00 | 0.00 | 53 | 1013.1 |
| 20260504173548 | 22 | 257 | 16.1 | 30.6 | 0.00 | 0.00 | 0.00 | 53 | 1013.1 |
| 20260504172627 | 22 | 248 | 16.1 | 37.0 | 0.00 | 0.00 | 0.00 | 54 | 1013.0 |
| 20260504171727 | 22 | 244 | 16.1 | 33.8 | 0.00 | 0.00 | 0.00 | 53 | 1013.1 |
| 20260504170827 | 22 | 257 | 14.5 | 32.2 | 0.00 | 0.00 | 0.00 | 52 | 1013.1 |
| 20260504151126 | 23 | 280 | 8.0 | 16.1 | 0.00 | 0.00 | 0.00 | 36 | 1013.4 |
| 20260504150226 | 23 | 244 | 8.0 | 25.7 | 0.00 | 0.00 | 0.00 | 38 | 1013.5 |
| 20260504140847 | 23 | 238 | 8.0 | 20.9 | 0.00 | 0.00 | 0.00 | 38 | 1013.9 |
| 20260504130526 | 22 | 271 | 4.8 | 22.5 | 0.00 | 0.00 | 0.00 | 41 | 1014.2 |
| 20260504120226 | 21 | 270 | 6.4 | 19.3 | 0.00 | 0.00 | 0.00 | 45 | 1014.9 |
| 20260504100526 | 20 | 238 | 3.2 | 17.7 | 0.00 | 0.00 | 0.00 | 53 | 1015.4 |